This demonstration page uses our WeatherBlox Daily Observations layout. Learn more.

39.92423, -83.80882

Hourly Observations for August 14, 2017

Temp ( °F °C ) Dew Point ( °F °C ) Humidity (%) Winds ( mph kmh ) Pressure ( in mb ) Visibility ( mi km ) Precip ( " mm )
12:56 am 00:56 Clear 61 16.1 59 15 93 93 E 3 6 30 1016 10 16.0934 0 0
1:56 am 01:56 Clear 61 16.1 59 15 93 93 Calm 29.99 1016 10 16.0934 0 0
2:56 am 02:56 Clear 61 16.1 59 15 93 93 ENE 5 7 29.98 1015 10 16.0934 0 0
3:56 am 03:56 Clear 60 15.6 58 14.4 93 93 E 5 7 29.98 1015 10 16.0934 0 0
4:56 am 04:56 Clear 60 15.6 58 14.4 93 93 E 5 7 29.98 1015 10 16.0934 0 0
5:56 am 05:56 Clear 61 16.1 59 15 93 93 Calm 29.97 1015 10 16.0934 0 0
6:56 am 06:56 Sunny 61 16.1 59 15 93 93 ESE 5 7 29.98 1015 10 16.0934 0 0
7:56 am 07:56 Sunny 61 16.1 60 15.6 97 97 ENE 5 7 29.98 1015 10 16.0934 0 0
8:56 am 08:56 Sunny 67 19.4 62 16.7 84 84 ESE 5 7 29.97 1015 10 16.0934 0 0
9:56 am 09:56 Sunny 70 21.1 63 17.2 79 79 SE 6 9 29.96 1015 10 16.0934 0 0
10:56 am 10:56 Sunny 75 23.9 65 18.3 71 71 VRB 5 7 29.96 1015 10 16.0934 0 0
11:56 am 11:56 Sunny 77 25 65 18.3 66 66 S 6 9 29.95 1014 10 16.0934 0 0
12:56 pm 12:56 Mostly Sunny 78 25.6 61 16.1 56 56 S 6 9 29.95 1014 10 16.0934 0 0
1:56 pm 13:56 Sunny 79 26.1 63 17.2 58 58 VRB 3 6 29.94 1014 10 16.0934 0 0
2:56 pm 14:56 Partly Cloudy 80 26.7 61 16.1 52 52 VRB 3 6 29.93 1014 10 16.0934 0 0
3:56 pm 15:56 Mostly Cloudy 80 26.7 63 17.2 56 56 ESE 6 9 29.9 1012 10 16.0934 0 0
4:56 pm 16:56 Mostly Cloudy 81 27.2 64 17.8 57 57 ESE 7 11 29.87 1012 10 16.0934 0 0
5:56 pm 17:56 Cloudy 77 25 65 18.3 66 66 SE 5 7 29.87 1012 10 16.0934 0 0
6:56 pm 18:56 Cloudy 77 25 66 18.9 69 69 SSE 5 7 29.87 1011 10 16.0934 0 0
7:56 pm 19:56 Mostly Cloudy 74 23.3 67 19.4 79 79 WSW 3 6 29.88 1012 10 16.0934 0 0
8:56 pm 20:56 Cloudy 73 22.8 68 20 84 84 SE 3 6 29.87 1012 10 16.0934 0 0
9:56 pm 21:56 Clear 71 21.7 68 20 90 90 SSE 3 6 29.88 1012 10 16.0934 0 0
10:56 pm 22:56 Clear 68 20 66 18.9 93 93 SE 3 6 29.88 1012 10 16.0934 0 0
11:33 pm 23:33 Clear with Mist and Fog 68 20 66 19 94 94 SSE 5 7 29.88 1012 1 1.60934 0 0
11:41 pm 23:41 Clear 70 21 66 19 88 88 SSE 5 7 29.85 1011 10 16.0934 0 0
11:56 pm 23:56 Clear 69 20.6 67 19.4 93 93 SSE 6 9 29.88 1012 10 16.0934 0 0

Powered by AerisWeather